Regional Weather Roundup
Issued by NWS

Home | Current Version | Previous Version | Graphics & Text | Print | Product List | Glossary On
Versions: 1 2 3 4 5 6 7 8 9 10 11 12 13 14 15 16 17 18 19 20 21 22 23 24 25 26 27 28 29 30 31 32 33 34 35 36 37 38 39 40 41 42 43 44 45 46 47 48 49 50
000
ASUS43 KFSD 240802
RWRSD

WEATHER ROUNDUP FOR SOUTH DAKOTA
NATIONAL WEATHER SERVICE SIOUX FALLS SD
300 AM CDT SUN MAY 24 2015

NOTE: "FAIR" INDICATES FEW OR NO CLOUDS BELOW 12,000 FEET WITH NO
SIGNIFICANT WEATHER AND/OR OBSTRUCTIONS TO VISIBILITY.


SDZ001>005-009-010-012>017-240900-
NORTHWEST AND NORTH CENTRAL SOUTH DAKOTA

CITY           SKY/WX    TMP DP  RH WIND       PRES   REMARKS
FAITH            N/A     53  51  93 E12       30.04F
MOBRIDGE       CLOUDY    55  52  89 E10       30.02F
$$

SDZ012>016-024>037-041>051-057-063-072>074-240900-
SOUTHWEST AND SOUTH CENTRAL SOUTH DAKOTA

CITY           SKY/WX    TMP DP  RH WIND       PRES   REMARKS
RAPID CTY ARPT LGT RAIN  53  52  96 E7        30.00F FOG
PIERRE         LGT RAIN  54  53  97 NE7       30.02F
CUSTER         LGT RAIN  47  45  93 E12       30.00F FOG
ELLSWORTH AFB  LGT RAIN  52  52 100 E10       30.00  FOG
PHILIP         LGT RAIN  55  54  96 E8        30.00F
PINE RIDGE     CLOUDY    53  50  89 E13       29.96F
WINNER         CLOUDY    56  54  93 E5        30.01S FOG
$$

SDZ004>011-016>023-039-040-240900-
NORTHEAST SOUTH DAKOTA

CITY           SKY/WX    TMP DP  RH WIND       PRES   REMARKS
ABERDEEN       CLOUDY    55  49  80 E9        30.05F
WATERTOWN      CLOUDY    57  48  72 E3        30.05F
BROOKINGS      CLOUDY    57  54  88 SE6       30.06F
$$

SDZ017-020-022-023-036>040-048>070-240900-
SOUTHEAST SOUTH DAKOTA

CITY           SKY/WX    TMP DP  RH WIND       PRES   REMARKS
SIOUX FALLS    LGT RAIN  58  57  97 E5        30.04F FOG
HURON          CLOUDY    54  52  93 S3        30.02F
CHAMBERLAIN    CLOUDY    55  54  99 E5        30.02S FOG
MITCHELL       CLOUDY    57  56  96 E3        30.02F FOG
YANKTON        CLOUDY    57  55  94 E7        30.01F
$$

ABBREVIATIONS USED IN REMARKS
   TC - TEMPERATURE IN CELSIUS
  WCI - WIND CHILL INDEX
   HX - HEAT INDEX
  VSB - VISIBILITY




USA.gov is the U.S. government's official web portal to all federal, state and local government web resources and services.